GFSNW_prec_precacc_222.txt.gz
Total_Precipitation_Accumulation
1.97 1.98 1.77 1.64 1.94 1.83 2.28 2.22 2.01 1.92 2.35 2.56 1.80 1.08 0.78 0.47 0.16 0.17 0.14 0.12 0.03 0.01 0.02 0.04 0.13 0.12 0.09 0.03 0.11 0.32 0.41 0.80 0.81 0.65 0.18 0.13 0.25 0.27 0.20 0.73 0.54 0.41 0.41 0.85
1.99 2.34 2.04 1.31 1.77 1.93 2.01 2.00 1.85 2.76 1.57 1.10 0.73 0.47 0.44 0.30 0.10 0.15 0.19 0.12 0.01 0.01 0.03 0.03 0.02 0.01 0.01 0.00 0.02 0.20 0.44 1.01 0.82 0.70 0.48 0.49 0.69 0.33 0.37 0.63 1.00 0.77 0.43 0.54
1.73 2.12 2.28 1.57 1.56 1.70 1.91 1.87 1.90 3.74 2.47 0.61 0.18 0.42 0.46 0.30 0.06 0.08 0.14 0.12 0.03 0.05 0.03 0.01 0.01 0.00 0.00 0.00 0.00 0.16 0.72 0.81 0.86 0.71 0.63 0.89 0.72 0.34 0.53 1.08 1.15 0.37 0.18 0.10
1.58 1.84 2.39 2.63 2.12 1.98 1.79 1.31 0.80 0.85 0.98 0.50 0.11 0.36 0.34 0.37 0.23 0.13 0.17 0.12 0.04 0.07 0.04 0.01 0.01 0.00 0.00 0.00 0.00 0.16 0.66 1.15 1.28 0.54 0.32 0.69 0.60 0.31 0.43 0.98 0.55 0.51 0.16 0.06
1.91 1.80 1.90 2.36 2.09 2.12 1.42 0.80 0.61 0.12 0.07 0.06 0.16 0.23 0.28 0.34 0.34 0.28 0.20 0.15 0.04 0.04 0.05 0.01 0.01 0.01 0.01 0.01 0.01 0.15 0.55 0.95 0.81 0.34 0.20 0.40 0.47 0.23 0.35 0.56 0.41 0.30 0.12 0.11
1.84 1.65 1.81 2.00 1.67 2.04 1.50 0.74 0.54 0.20 0.14 0.13 0.10 0.08 0.12 0.23 0.37 0.24 0.09 0.09 0.11 0.07 0.03 0.01 0.00 0.00 0.00 0.00 0.01 0.07 0.36 0.63 0.83 0.66 0.41 0.55 0.52 0.26 0.31 0.41 0.35 0.24 0.14 0.12
1.48 1.50 1.63 1.74 1.68 1.75 1.42 0.85 0.83 0.41 0.15 0.06 0.03 0.02 0.11 0.23 0.27 0.26 0.14 0.08 0.12 0.06 0.06 0.04 0.02 0.02 0.00 0.01 0.01 0.01 0.10 0.32 0.69 0.78 0.68 0.71 0.49 0.29 0.21 0.23 0.23 0.17 0.16 0.11
1.15 1.21 1.32 1.38 1.36 1.04 0.88 0.76 0.86 0.62 0.23 0.06 0.04 0.03 0.14 0.22 0.21 0.31 0.27 0.09 0.03 0.05 0.07 0.16 0.13 0.11 0.11 0.02 0.02 0.02 0.05 0.17 0.37 0.31 0.30 0.21 0.08 0.16 0.17 0.23 0.16 0.08 0.12 0.05
1.28 1.10 0.97 1.07 0.92 0.87 0.69 0.64 0.86 0.98 0.62 0.12 0.04 0.09 0.19 0.28 0.22 0.31 0.25 0.11 0.09 0.15 0.23 0.39 0.26 0.12 0.10 0.04 0.04 0.03 0.04 0.08 0.32 0.22 0.31 0.13 0.04 0.02 0.01 0.02 0.08 0.01 0.01 0.01
1.46 1.32 1.03 1.08 0.80 0.66 0.67 0.62 0.73 1.04 0.80 0.14 0.03 0.09 0.28 0.46 0.34 0.45 0.40 0.28 0.25 0.24 0.40 0.46 0.25 0.08 0.01 0.01 0.02 0.06 0.17 0.18 0.37 0.34 0.44 0.09 0.01 0.01 0.00 0.05 0.07 0.01 0.03 0.03
1.31 1.32 1.00 0.94 0.69 0.67 0.89 0.50 0.57 1.02 0.94 0.25 0.05 0.05 0.17 0.48 0.47 0.52 0.47 0.63 0.42 0.57 0.69 0.54 0.28 0.21 0.14 0.11 0.05 0.05 0.12 0.16 0.14 0.20 0.29 0.07 0.00 0.02 0.05 0.05 0.01 0.00 0.01 0.04
1.04 0.88 0.77 0.78 0.70 0.70 1.11 0.74 0.45 0.77 0.95 0.46 0.08 0.06 0.08 0.28 0.40 0.54 0.59 0.68 0.42 0.62 0.73 0.59 0.44 0.31 0.19 0.13 0.15 0.02 0.10 0.13 0.15 0.10 0.08 0.02 0.02 0.09 0.05 0.03 0.02 0.00 0.00 0.00
0.88 0.72 0.66 0.74 0.73 0.74 1.23 0.84 0.58 0.91 0.96 0.51 0.14 0.08 0.03 0.10 0.22 0.41 0.63 0.47 0.35 0.51 0.53 0.98 0.75 0.48 0.22 0.23 0.15 0.09 0.06 0.10 0.20 0.16 0.03 0.01 0.01 0.01 0.03 0.06 0.05 0.01 0.00 0.00
0.93 0.73 0.71 0.61 0.64 0.81 1.19 0.75 0.54 0.98 1.50 1.58 0.36 0.04 0.01 0.04 0.19 0.30 0.37 0.53 0.40 0.46 0.68 1.23 1.34 0.72 0.20 0.11 0.10 0.08 0.06 0.08 0.10 0.09 0.02 0.02 0.01 0.01 0.01 0.01 0.01 0.01 0.00 0.00
0.80 0.68 0.73 0.72 0.81 1.05 1.07 0.68 0.59 0.65 1.31 1.53 0.55 0.15 0.04 0.03 0.17 0.34 0.41 0.55 0.81 0.80 1.11 1.37 0.88 0.38 0.31 0.24 0.22 0.20 0.09 0.15 0.17 0.13 0.01 0.04 0.04 0.01 0.01 0.02 0.01 0.00 0.00 0.00
0.67 0.67 0.83 0.92 0.95 1.55 1.70 2.51 1.49 0.75 1.01 2.59 1.89 0.60 0.17 0.10 0.23 0.43 0.57 0.58 0.69 1.18 1.55 1.29 0.68 0.26 0.71 1.28 0.45 0.12 0.10 0.04 0.04 0.05 0.02 0.04 0.03 0.01 0.01 0.01 0.01 0.01 0.00 0.01
0.85 0.89 0.90 0.88 1.12 1.53 1.97 2.41 1.39 1.08 1.57 3.55 3.13 1.64 0.58 0.25 0.35 0.66 0.80 0.81 0.88 1.13 1.69 1.24 0.71 0.43 1.40 1.89 0.82 0.11 0.02 0.01 0.01 0.02 0.08 0.11 0.01 0.02 0.01 0.02 0.01 0.02 0.01 0.00
1.12 1.12 1.15 1.28 1.77 2.06 1.93 1.27 0.97 1.26 2.24 3.34 3.43 1.83 0.79 0.54 0.65 0.93 0.95 0.95 1.06 1.26 1.42 0.99 0.56 0.78 1.42 1.49 0.26 0.05 0.04 0.03 0.01 0.01 0.02 0.06 0.03 0.02 0.04 0.06 0.04 0.04 0.02 0.02
1.82 2.13 2.44 2.91 2.84 2.26 1.80 1.47 1.59 1.66 3.13 5.01 3.07 1.14 0.80 0.74 0.56 0.72 0.87 1.06 1.51 1.42 1.08 0.88 0.88 0.92 1.02 0.50 0.16 0.04 0.02 0.08 0.09 0.03 0.00 0.01 0.03 0.03 0.01 0.02 0.04 0.06 0.07 0.07
3.24 3.45 3.68 3.75 2.99 2.40 2.50 3.39 4.37 5.02 4.63 3.62 1.94 0.74 0.76 0.74 0.66 1.06 1.29 1.41 1.41 1.31 0.74 0.86 1.23 0.70 0.29 0.10 0.03 0.04 0.07 0.08 0.08 0.15 0.12 0.09 0.10 0.05 0.04 0.05 0.05 0.06 0.06 0.10
3.89 3.56 3.02 3.00 2.67 3.33 4.23 4.81 4.46 4.15 3.53 2.30 1.34 0.89 0.65 0.56 0.79 1.10 1.39 1.59 1.36 1.33 0.58 0.95 0.96 0.47 0.15 0.09 0.06 0.04 0.05 0.07 0.07 0.13 0.17 0.18 0.22 0.19 0.14 0.11 0.10 0.07 0.07 0.11
3.45 2.81 2.79 3.40 3.75 4.40 4.27 3.37 2.25 2.06 1.68 1.25 0.89 0.47 0.44 0.70 1.00 1.63 2.02 1.75 1.45 1.04 0.67 1.13 0.47 0.13 0.02 0.07 0.11 0.14 0.16 0.16 0.17 0.18 0.28 0.31 0.35 0.33 0.27 0.21 0.18 0.16 0.14 0.16
3.40 3.59 4.00 3.71 3.33 3.13 2.35 1.42 0.97 0.80 0.60 0.53 0.47 0.47 0.63 0.86 1.22 2.06 1.95 1.88 1.29 0.79 0.96 0.60 0.17 0.04 0.11 0.20 0.16 0.10 0.06 0.11 0.26 0.42 0.53 0.46 0.32 0.23 0.25 0.34 0.35 0.36 0.34 0.32
4.40 4.18 3.80 2.50 1.84 0.92 0.45 0.36 0.33 0.23 0.31 0.42 0.38 0.67 0.81 0.91 1.26 1.53 1.70 1.11 1.02 0.98 0.56 0.21 0.12 0.18 0.27 0.25 0.22 0.21 0.15 0.17 0.34 0.48 0.46 0.39 0.41 0.40 0.38 0.42 0.46 0.45 0.51 0.62
4.00 3.44 2.26 1.28 0.65 0.39 0.35 0.28 0.32 0.46 0.51 0.57 0.68 0.92 0.93 1.18 1.59 1.37 1.33 1.34 0.78 0.27 0.15 0.17 0.26 0.41 0.53 0.55 0.54 0.51 0.39 0.39 0.53 0.69 0.68 0.63 0.41 0.35 0.52 0.70 0.69 0.53 0.54 0.74
3.64 2.91 1.65 0.75 0.45 0.41 0.44 0.44 0.50 0.58 0.62 0.77 1.25 1.43 1.44 1.58 1.54 1.39 0.88 0.71 0.38 0.31 0.47 0.59 0.58 0.71 0.80 0.83 0.85 0.90 0.91 0.90 0.84 1.17 1.32 1.05 0.73 0.64 0.63 0.63 0.78 0.71 0.62 0.62
3.88 1.79 0.83 0.72 0.67 0.69 0.73 0.65 0.67 0.70 1.02 1.09 1.68 1.96 1.22 1.02 1.12 0.52 0.27 0.32 0.32 0.52 0.74 0.83 0.83 0.87 0.78 0.67 0.75 0.90 1.07 1.23 1.05 1.11 1.21 1.30 1.09 0.68 0.38 0.50 0.54 0.42 0.40 0.46

GFSNW_prec_precacc_225.txt.gz
Total_Precipitation_Accumulation
1.97 1.98 1.77 1.64 1.94 1.83 2.28 2.22 2.01 1.92 2.35 2.56 1.80 1.08 0.78 0.47 0.16 0.17 0.14 0.12 0.03 0.01 0.02 0.04 0.13 0.12 0.09 0.03 0.11 0.32 0.41 0.80 0.81 0.65 0.18 0.13 0.25 0.27 0.20 0.74 0.55 0.41 0.41 0.86
1.99 2.34 2.04 1.31 1.77 1.93 2.01 2.00 1.85 2.76 1.57 1.10 0.73 0.47 0.44 0.30 0.10 0.15 0.19 0.12 0.01 0.01 0.03 0.03 0.02 0.01 0.01 0.00 0.02 0.20 0.44 1.01 0.82 0.70 0.48 0.49 0.69 0.33 0.37 0.63 1.01 0.77 0.44 0.55
1.73 2.12 2.28 1.57 1.56 1.70 1.91 1.87 1.90 3.74 2.47 0.61 0.18 0.42 0.46 0.30 0.06 0.08 0.14 0.12 0.03 0.05 0.03 0.01 0.01 0.00 0.00 0.00 0.00 0.16 0.72 0.81 0.86 0.71 0.63 0.89 0.72 0.34 0.53 1.08 1.16 0.37 0.19 0.10
1.58 1.84 2.39 2.63 2.12 1.98 1.79 1.31 0.80 0.85 0.98 0.50 0.11 0.36 0.34 0.37 0.23 0.13 0.17 0.12 0.04 0.07 0.04 0.01 0.01 0.00 0.00 0.00 0.00 0.16 0.66 1.15 1.28 0.54 0.32 0.69 0.60 0.31 0.43 0.98 0.55 0.51 0.16 0.06
1.91 1.80 1.90 2.36 2.09 2.12 1.42 0.80 0.61 0.12 0.07 0.06 0.16 0.23 0.28 0.34 0.34 0.28 0.20 0.15 0.04 0.04 0.05 0.01 0.01 0.01 0.01 0.01 0.01 0.15 0.55 0.95 0.81 0.34 0.20 0.40 0.47 0.23 0.35 0.56 0.41 0.30 0.12 0.11
1.84 1.65 1.81 2.00 1.67 2.04 1.50 0.74 0.54 0.20 0.14 0.13 0.10 0.08 0.12 0.23 0.37 0.24 0.09 0.09 0.11 0.07 0.03 0.01 0.00 0.00 0.00 0.00 0.01 0.07 0.36 0.63 0.83 0.66 0.41 0.55 0.52 0.26 0.31 0.41 0.35 0.24 0.15 0.13
1.48 1.50 1.64 1.74 1.68 1.75 1.42 0.85 0.83 0.41 0.15 0.06 0.03 0.02 0.11 0.23 0.27 0.26 0.14 0.08 0.12 0.06 0.06 0.04 0.02 0.02 0.00 0.01 0.01 0.01 0.10 0.32 0.70 0.78 0.68 0.71 0.49 0.29 0.21 0.24 0.23 0.17 0.17 0.11
1.15 1.21 1.33 1.38 1.36 1.05 0.88 0.76 0.86 0.62 0.23 0.06 0.04 0.03 0.14 0.22 0.21 0.31 0.27 0.09 0.03 0.05 0.07 0.16 0.13 0.11 0.11 0.02 0.02 0.02 0.05 0.17 0.37 0.31 0.31 0.21 0.08 0.16 0.17 0.23 0.16 0.08 0.12 0.05
1.28 1.10 0.98 1.07 0.92 0.87 0.69 0.64 0.86 0.98 0.63 0.12 0.04 0.09 0.19 0.28 0.22 0.31 0.25 0.11 0.09 0.15 0.23 0.39 0.26 0.13 0.10 0.04 0.04 0.03 0.04 0.09 0.37 0.28 0.36 0.15 0.04 0.02 0.01 0.02 0.08 0.01 0.01 0.01
1.47 1.32 1.03 1.09 0.81 0.66 0.67 0.63 0.74 1.05 0.83 0.14 0.03 0.09 0.28 0.46 0.34 0.47 0.40 0.28 0.25 0.24 0.40 0.47 0.25 0.08 0.01 0.02 0.02 0.06 0.17 0.19 0.38 0.36 0.48 0.12 0.01 0.01 0.00 0.05 0.07 0.01 0.03 0.03
1.31 1.32 1.00 0.95 0.70 0.67 0.89 0.50 0.58 1.04 0.98 0.26 0.05 0.05 0.17 0.48 0.47 0.52 0.47 0.63 0.42 0.58 0.70 0.55 0.29 0.21 0.15 0.11 0.05 0.05 0.12 0.17 0.14 0.20 0.29 0.07 0.00 0.02 0.05 0.05 0.01 0.00 0.01 0.04
1.04 0.88 0.77 0.79 0.70 0.70 1.12 0.74 0.45 0.79 0.98 0.46 0.08 0.06 0.08 0.28 0.40 0.56 0.61 0.69 0.42 0.64 0.75 0.61 0.48 0.34 0.20 0.14 0.15 0.02 0.10 0.13 0.17 0.13 0.09 0.02 0.02 0.09 0.05 0.03 0.02 0.00 0.00 0.00
0.88 0.72 0.67 0.75 0.73 0.75 1.25 0.84 0.59 0.92 0.96 0.51 0.14 0.08 0.03 0.10 0.22 0.44 0.65 0.47 0.37 0.52 0.58 1.04 0.82 0.52 0.22 0.23 0.15 0.09 0.07 0.11 0.24 0.19 0.03 0.01 0.01 0.01 0.03 0.06 0.05 0.01 0.00 0.00
0.93 0.73 0.71 0.62 0.64 0.82 1.20 0.75 0.54 0.99 1.51 1.59 0.36 0.04 0.01 0.04 0.19 0.30 0.38 0.53 0.41 0.47 0.70 1.26 1.36 0.73 0.20 0.12 0.10 0.11 0.15 0.11 0.13 0.10 0.02 0.02 0.01 0.01 0.01 0.01 0.01 0.01 0.00 0.00
0.80 0.68 0.73 0.72 0.81 1.06 1.07 0.68 0.59 0.66 1.36 1.56 0.55 0.15 0.04 0.03 0.17 0.34 0.43 0.55 0.83 0.82 1.12 1.38 0.89 0.38 0.33 0.25 0.24 0.29 0.15 0.19 0.21 0.16 0.01 0.05 0.05 0.01 0.01 0.02 0.01 0.00 0.00 0.00
0.67 0.67 0.83 0.92 0.95 1.55 1.70 2.51 1.49 0.75 1.02 2.61 1.89 0.60 0.18 0.11 0.23 0.44 0.58 0.58 0.69 1.19 1.55 1.29 0.68 0.26 0.80 1.34 0.51 0.17 0.10 0.04 0.04 0.05 0.02 0.04 0.03 0.01 0.01 0.01 0.01 0.01 0.00 0.01
0.85 0.89 0.90 0.88 1.12 1.53 1.97 2.41 1.41 1.09 1.57 3.55 3.13 1.64 0.59 0.26 0.35 0.66 0.80 0.81 0.88 1.13 1.69 1.24 0.71 0.45 1.50 1.99 0.84 0.11 0.02 0.01 0.01 0.03 0.10 0.14 0.02 0.02 0.01 0.02 0.02 0.02 0.01 0.00
1.12 1.12 1.15 1.28 1.77 2.06 1.93 1.27 0.97 1.26 2.24 3.35 3.43 1.83 0.80 0.54 0.65 0.93 0.95 0.95 1.06 1.26 1.42 1.00 0.63 0.82 1.42 1.49 0.26 0.05 0.04 0.03 0.01 0.02 0.03 0.08 0.04 0.03 0.05 0.07 0.05 0.06 0.03 0.02
1.82 2.13 2.44 2.91 2.84 2.26 1.80 1.47 1.59 1.66 3.13 5.01 3.08 1.15 0.82 0.74 0.56 0.72 0.87 1.06 1.51 1.43 1.11 0.99 0.91 0.92 1.04 0.55 0.19 0.07 0.05 0.12 0.11 0.03 0.00 0.02 0.04 0.05 0.04 0.05 0.07 0.10 0.08 0.07
3.24 3.45 3.68 3.75 2.99 2.40 2.50 3.39 4.37 5.02 4.63 3.62 1.94 0.75 0.76 0.74 0.66 1.06 1.29 1.41 1.41 1.32 0.78 1.01 1.23 0.72 0.31 0.11 0.06 0.08 0.10 0.10 0.12 0.21 0.18 0.16 0.15 0.09 0.08 0.10 0.10 0.11 0.09 0.12
3.89 3.56 3.02 3.00 2.67 3.33 4.23 4.81 4.46 4.15 3.53 2.30 1.35 0.89 0.65 0.56 0.79 1.10 1.39 1.59 1.36 1.34 0.61 0.98 0.96 0.49 0.16 0.09 0.06 0.04 0.06 0.09 0.11 0.18 0.22 0.24 0.30 0.26 0.20 0.15 0.14 0.11 0.12 0.17
3.45 2.81 2.79 3.40 3.75 4.40 4.27 3.37 2.25 2.06 1.68 1.25 0.89 0.47 0.45 0.71 1.00 1.63 2.02 1.75 1.46 1.08 0.67 1.13 0.48 0.15 0.03 0.07 0.11 0.14 0.16 0.19 0.20 0.22 0.32 0.36 0.40 0.38 0.31 0.26 0.23 0.21 0.19 0.21
3.40 3.59 4.00 3.71 3.33 3.13 2.35 1.42 0.97 0.80 0.60 0.54 0.49 0.47 0.63 0.86 1.22 2.06 1.95 1.88 1.30 0.80 0.96 0.61 0.19 0.06 0.12 0.21 0.16 0.10 0.06 0.11 0.27 0.43 0.55 0.47 0.34 0.25 0.29 0.38 0.39 0.40 0.37 0.38
4.40 4.18 3.80 2.50 1.84 0.92 0.45 0.36 0.33 0.23 0.33 0.44 0.39 0.67 0.82 0.92 1.26 1.53 1.70 1.11 1.02 0.98 0.56 0.22 0.13 0.20 0.28 0.26 0.22 0.21 0.15 0.17 0.34 0.49 0.48 0.41 0.42 0.42 0.41 0.47 0.51 0.49 0.57 0.66
4.00 3.44 2.26 1.28 0.65 0.39 0.35 0.28 0.32 0.46 0.51 0.57 0.68 0.92 0.93 1.18 1.59 1.37 1.34 1.35 0.79 0.28 0.16 0.18 0.28 0.43 0.54 0.55 0.55 0.51 0.39 0.39 0.54 0.71 0.70 0.65 0.41 0.36 0.56 0.75 0.72 0.57 0.59 0.79
3.64 2.91 1.65 0.75 0.45 0.41 0.44 0.44 0.50 0.58 0.62 0.77 1.25 1.43 1.44 1.58 1.55 1.40 0.89 0.71 0.39 0.32 0.48 0.60 0.60 0.72 0.80 0.83 0.85 0.90 0.92 0.91 0.84 1.19 1.34 1.06 0.75 0.70 0.69 0.65 0.80 0.75 0.67 0.67
3.88 1.79 0.83 0.72 0.67 0.69 0.74 0.65 0.67 0.70 1.02 1.09 1.68 1.96 1.22 1.02 1.12 0.52 0.27 0.32 0.32 0.53 0.75 0.85 0.85 0.87 0.78 0.68 0.76 0.90 1.07 1.23 1.05 1.11 1.21 1.32 1.11 0.69 0.38 0.52 0.58 0.47 0.46 0.53

GFSNW_prec_precacc_228.txt.gz
Total_Precipitation_Accumulation
1.97 1.98 1.77 1.64 1.94 1.83 2.28 2.22 2.01 1.92 2.35 2.56 1.80 1.08 0.78 0.47 0.16 0.17 0.14 0.12 0.03 0.01 0.02 0.04 0.13 0.12 0.09 0.03 0.11 0.32 0.41 0.80 0.81 0.65 0.18 0.13 0.25 0.27 0.20 0.75 0.56 0.44 0.45 0.91
1.99 2.34 2.04 1.31 1.77 1.93 2.01 2.00 1.85 2.76 1.57 1.10 0.73 0.47 0.44 0.30 0.10 0.15 0.19 0.12 0.01 0.01 0.03 0.03 0.02 0.01 0.01 0.00 0.02 0.20 0.44 1.01 0.82 0.70 0.48 0.49 0.69 0.33 0.37 0.64 1.01 0.78 0.47 0.62
1.73 2.12 2.28 1.57 1.56 1.70 1.91 1.87 1.90 3.74 2.47 0.61 0.18 0.42 0.46 0.30 0.06 0.08 0.14 0.12 0.03 0.05 0.03 0.01 0.01 0.00 0.00 0.00 0.00 0.16 0.72 0.81 0.86 0.71 0.63 0.89 0.72 0.34 0.54 1.12 1.18 0.38 0.19 0.11
1.58 1.84 2.39 2.63 2.12 1.98 1.79 1.31 0.80 0.85 0.98 0.50 0.11 0.36 0.34 0.37 0.23 0.13 0.17 0.12 0.04 0.07 0.04 0.01 0.01 0.00 0.00 0.00 0.00 0.16 0.66 1.15 1.28 0.54 0.32 0.69 0.60 0.31 0.43 0.98 0.56 0.52 0.16 0.06
1.91 1.80 1.90 2.36 2.09 2.12 1.42 0.80 0.61 0.12 0.07 0.06 0.16 0.23 0.28 0.34 0.34 0.28 0.20 0.15 0.04 0.04 0.05 0.01 0.01 0.01 0.01 0.01 0.01 0.15 0.55 0.95 0.81 0.34 0.20 0.40 0.47 0.23 0.35 0.56 0.41 0.30 0.12 0.11
1.84 1.65 1.81 2.00 1.67 2.04 1.50 0.74 0.54 0.20 0.14 0.13 0.10 0.08 0.12 0.23 0.37 0.24 0.09 0.09 0.11 0.07 0.03 0.01 0.00 0.00 0.00 0.00 0.01 0.07 0.36 0.63 0.83 0.66 0.41 0.55 0.52 0.26 0.32 0.43 0.35 0.24 0.16 0.15
1.48 1.51 1.64 1.74 1.68 1.75 1.42 0.85 0.83 0.41 0.15 0.06 0.03 0.02 0.11 0.23 0.27 0.26 0.14 0.08 0.12 0.06 0.06 0.04 0.02 0.02 0.00 0.01 0.01 0.01 0.10 0.32 0.70 0.79 0.68 0.71 0.49 0.29 0.21 0.24 0.23 0.17 0.17 0.11
1.15 1.21 1.33 1.39 1.36 1.05 0.88 0.76 0.86 0.62 0.23 0.06 0.04 0.03 0.14 0.22 0.21 0.31 0.27 0.09 0.03 0.05 0.07 0.16 0.13 0.11 0.11 0.02 0.02 0.02 0.05 0.18 0.40 0.34 0.32 0.21 0.08 0.16 0.17 0.23 0.16 0.08 0.12 0.05
1.28 1.10 0.98 1.07 0.93 0.87 0.69 0.64 0.86 0.99 0.65 0.12 0.04 0.09 0.19 0.28 0.22 0.31 0.25 0.11 0.09 0.15 0.23 0.39 0.27 0.13 0.11 0.04 0.04 0.04 0.04 0.09 0.41 0.32 0.40 0.17 0.04 0.02 0.01 0.03 0.08 0.01 0.01 0.01
1.47 1.32 1.03 1.09 0.81 0.66 0.67 0.63 0.75 1.05 0.85 0.14 0.03 0.09 0.28 0.46 0.35 0.47 0.40 0.28 0.25 0.24 0.41 0.47 0.26 0.08 0.01 0.02 0.03 0.06 0.17 0.19 0.38 0.36 0.48 0.12 0.01 0.01 0.00 0.05 0.07 0.01 0.03 0.03
1.31 1.32 1.01 0.95 0.70 0.67 0.89 0.50 0.58 1.05 1.00 0.26 0.05 0.05 0.17 0.48 0.47 0.52 0.47 0.65 0.42 0.58 0.71 0.56 0.30 0.22 0.16 0.11 0.05 0.05 0.12 0.18 0.15 0.21 0.29 0.07 0.00 0.02 0.06 0.05 0.01 0.00 0.01 0.04
1.04 0.88 0.78 0.80 0.70 0.70 1.12 0.74 0.45 0.79 0.99 0.46 0.08 0.06 0.08 0.28 0.41 0.58 0.62 0.72 0.45 0.67 0.78 0.66 0.52 0.37 0.22 0.14 0.15 0.02 0.11 0.16 0.23 0.18 0.10 0.02 0.02 0.09 0.05 0.03 0.02 0.00 0.00 0.00
0.89 0.72 0.67 0.75 0.74 0.75 1.26 0.84 0.59 0.92 0.97 0.51 0.14 0.08 0.03 0.10 0.22 0.45 0.66 0.47 0.41 0.55 0.61 1.05 0.82 0.52 0.23 0.23 0.15 0.10 0.09 0.12 0.26 0.20 0.03 0.01 0.01 0.01 0.03 0.06 0.05 0.01 0.00 0.00
0.93 0.73 0.71 0.62 0.65 0.83 1.21 0.75 0.54 0.99 1.52 1.61 0.36 0.04 0.01 0.04 0.19 0.30 0.40 0.56 0.44 0.50 0.71 1.26 1.36 0.73 0.20 0.12 0.10 0.18 0.18 0.12 0.14 0.10 0.02 0.02 0.01 0.01 0.01 0.01 0.01 0.01 0.00 0.00
0.80 0.68 0.73 0.72 0.81 1.06 1.07 0.68 0.59 0.66 1.37 1.56 0.55 0.15 0.04 0.03 0.17 0.34 0.43 0.56 0.83 0.82 1.12 1.38 0.89 0.38 0.33 0.25 0.28 0.35 0.19 0.24 0.27 0.19 0.02 0.10 0.06 0.01 0.01 0.02 0.01 0.00 0.00 0.00
0.67 0.67 0.83 0.92 0.95 1.55 1.70 2.51 1.49 0.75 1.02 2.61 1.89 0.60 0.18 0.11 0.23 0.44 0.58 0.58 0.69 1.19 1.55 1.29 0.68 0.26 0.82 1.38 0.58 0.21 0.11 0.05 0.07 0.10 0.04 0.05 0.04 0.01 0.01 0.03 0.02 0.02 0.02 0.02
0.85 0.89 0.90 0.88 1.12 1.53 1.97 2.41 1.41 1.09 1.57 3.55 3.13 1.64 0.59 0.26 0.35 0.66 0.80 0.81 0.88 1.13 1.69 1.25 0.72 0.46 1.56 2.06 0.85 0.11 0.02 0.01 0.01 0.04 0.15 0.17 0.03 0.05 0.04 0.06 0.05 0.05 0.04 0.01
1.12 1.12 1.15 1.28 1.77 2.06 1.93 1.27 0.97 1.27 2.24 3.35 3.43 1.83 0.80 0.54 0.65 0.93 0.95 0.95 1.06 1.26 1.43 1.02 0.70 0.82 1.42 1.49 0.26 0.05 0.04 0.03 0.01 0.02 0.05 0.13 0.08 0.06 0.08 0.10 0.08 0.08 0.04 0.05
1.82 2.13 2.44 2.91 2.84 2.26 1.80 1.47 1.60 1.66 3.13 5.01 3.08 1.16 0.82 0.74 0.56 0.72 0.87 1.06 1.51 1.43 1.17 1.06 0.91 0.92 1.06 0.59 0.22 0.08 0.06 0.15 0.14 0.03 0.00 0.02 0.05 0.06 0.05 0.06 0.08 0.12 0.10 0.10
3.24 3.45 3.68 3.75 2.99 2.40 2.50 3.39 4.37 5.02 4.63 3.63 1.94 0.76 0.76 0.74 0.66 1.06 1.29 1.41 1.41 1.32 0.86 1.06 1.24 0.74 0.33 0.14 0.10 0.11 0.14 0.14 0.15 0.24 0.22 0.19 0.17 0.10 0.09 0.12 0.13 0.15 0.13 0.15
3.89 3.56 3.02 3.00 2.67 3.33 4.23 4.81 4.46 4.15 3.53 2.30 1.35 0.90 0.66 0.56 0.80 1.10 1.39 1.60 1.36 1.35 0.63 1.00 0.97 0.49 0.17 0.10 0.07 0.04 0.06 0.10 0.13 0.21 0.25 0.27 0.33 0.30 0.23 0.17 0.15 0.14 0.16 0.21
3.45 2.81 2.79 3.40 3.75 4.40 4.27 3.37 2.25 2.06 1.68 1.25 0.90 0.47 0.45 0.71 1.00 1.64 2.02 1.75 1.46 1.10 0.68 1.13 0.48 0.16 0.04 0.08 0.12 0.14 0.16 0.20 0.22 0.24 0.35 0.39 0.43 0.41 0.33 0.28 0.26 0.26 0.23 0.24
3.40 3.59 4.00 3.71 3.33 3.13 2.35 1.42 0.97 0.80 0.61 0.54 0.50 0.48 0.63 0.87 1.23 2.07 1.95 1.88 1.31 0.80 0.96 0.61 0.21 0.07 0.12 0.21 0.16 0.10 0.06 0.11 0.27 0.43 0.56 0.48 0.35 0.26 0.31 0.40 0.42 0.43 0.40 0.42
4.40 4.18 3.80 2.50 1.84 0.92 0.45 0.36 0.33 0.23 0.34 0.44 0.39 0.67 0.82 0.93 1.26 1.53 1.71 1.12 1.03 0.98 0.56 0.22 0.13 0.20 0.28 0.26 0.22 0.21 0.15 0.17 0.35 0.49 0.48 0.41 0.43 0.43 0.43 0.50 0.56 0.53 0.62 0.71
4.00 3.44 2.26 1.28 0.65 0.39 0.35 0.28 0.32 0.46 0.51 0.57 0.68 0.92 0.93 1.18 1.59 1.37 1.34 1.35 0.79 0.28 0.16 0.19 0.30 0.44 0.54 0.55 0.55 0.51 0.39 0.40 0.55 0.71 0.71 0.67 0.43 0.36 0.57 0.79 0.76 0.60 0.62 0.82
3.64 2.91 1.65 0.75 0.45 0.41 0.44 0.44 0.50 0.58 0.62 0.77 1.25 1.43 1.44 1.58 1.55 1.41 0.89 0.71 0.39 0.33 0.48 0.62 0.61 0.72 0.80 0.83 0.85 0.91 0.93 0.92 0.85 1.20 1.37 1.08 0.77 0.74 0.75 0.67 0.81 0.78 0.69 0.70
3.88 1.79 0.83 0.73 0.67 0.69 0.74 0.65 0.67 0.70 1.02 1.09 1.68 1.96 1.22 1.03 1.12 0.52 0.27 0.33 0.33 0.54 0.76 0.86 0.86 0.87 0.78 0.68 0.76 0.91 1.08 1.24 1.07 1.12 1.23 1.35 1.15 0.71 0.39 0.53 0.60 0.49 0.49 0.57

GFSNW_prec_precacc_234.txt.gz
Total_Precipitation_Accumulation
1.97 1.98 1.77 1.64 1.94 1.83 2.28 2.22 2.01 1.92 2.35 2.56 1.80 1.08 0.78 0.47 0.16 0.17 0.14 0.12 0.03 0.01 0.02 0.04 0.13 0.12 0.09 0.03 0.11 0.32 0.41 0.80 0.81 0.65 0.18 0.13 0.25 0.27 0.20 0.75 0.57 0.47 0.51 1.10
1.99 2.34 2.04 1.31 1.77 1.93 2.01 2.00 1.85 2.76 1.57 1.10 0.73 0.47 0.44 0.30 0.10 0.15 0.19 0.12 0.01 0.01 0.03 0.03 0.02 0.01 0.01 0.00 0.02 0.20 0.44 1.01 0.82 0.70 0.48 0.49 0.69 0.33 0.37 0.64 1.01 0.78 0.50 0.78
1.73 2.12 2.28 1.57 1.56 1.70 1.91 1.87 1.90 3.74 2.47 0.61 0.18 0.42 0.46 0.30 0.06 0.08 0.14 0.12 0.03 0.05 0.03 0.01 0.01 0.00 0.00 0.00 0.00 0.16 0.72 0.81 0.87 0.71 0.63 0.89 0.72 0.34 0.54 1.12 1.18 0.38 0.19 0.12
1.58 1.84 2.39 2.63 2.12 1.98 1.79 1.31 0.80 0.85 0.98 0.50 0.11 0.36 0.34 0.37 0.23 0.13 0.17 0.12 0.04 0.07 0.04 0.01 0.01 0.00 0.00 0.00 0.00 0.16 0.66 1.15 1.28 0.55 0.32 0.69 0.60 0.31 0.43 0.98 0.56 0.52 0.16 0.07
1.91 1.80 1.90 2.36 2.09 2.12 1.42 0.80 0.61 0.12 0.07 0.06 0.16 0.23 0.28 0.34 0.34 0.28 0.20 0.15 0.04 0.04 0.05 0.02 0.02 0.01 0.01 0.01 0.01 0.15 0.55 0.96 0.81 0.34 0.20 0.40 0.47 0.23 0.35 0.56 0.42 0.31 0.14 0.13
1.84 1.65 1.81 2.00 1.67 2.04 1.50 0.74 0.54 0.20 0.14 0.13 0.10 0.08 0.12 0.23 0.37 0.24 0.09 0.09 0.11 0.07 0.03 0.01 0.00 0.00 0.00 0.00 0.01 0.08 0.36 0.66 0.87 0.67 0.41 0.55 0.54 0.27 0.33 0.46 0.36 0.25 0.17 0.17
1.48 1.51 1.64 1.74 1.68 1.75 1.42 0.85 0.83 0.41 0.15 0.06 0.03 0.02 0.11 0.23 0.27 0.26 0.14 0.08 0.12 0.06 0.06 0.04 0.02 0.02 0.00 0.02 0.02 0.01 0.11 0.36 0.76 0.81 0.69 0.72 0.51 0.30 0.22 0.25 0.24 0.17 0.17 0.11
1.15 1.22 1.33 1.39 1.36 1.05 0.88 0.76 0.86 0.62 0.23 0.06 0.04 0.03 0.14 0.22 0.21 0.31 0.27 0.09 0.03 0.05 0.07 0.16 0.13 0.11 0.11 0.03 0.03 0.03 0.05 0.19 0.41 0.37 0.34 0.22 0.09 0.17 0.17 0.23 0.16 0.08 0.12 0.05
1.28 1.10 0.98 1.08 0.93 0.87 0.69 0.64 0.86 0.99 0.65 0.12 0.04 0.09 0.19 0.28 0.23 0.32 0.25 0.11 0.09 0.15 0.23 0.39 0.28 0.15 0.11 0.04 0.04 0.04 0.04 0.09 0.41 0.32 0.40 0.17 0.05 0.02 0.01 0.03 0.08 0.01 0.01 0.01
1.47 1.32 1.04 1.09 0.82 0.66 0.67 0.63 0.75 1.05 0.86 0.14 0.03 0.09 0.29 0.47 0.37 0.49 0.40 0.28 0.25 0.24 0.41 0.47 0.28 0.08 0.02 0.03 0.03 0.06 0.17 0.19 0.38 0.36 0.48 0.12 0.02 0.01 0.00 0.06 0.07 0.01 0.03 0.03
1.31 1.33 1.01 0.95 0.71 0.67 0.89 0.50 0.58 1.05 1.00 0.26 0.05 0.05 0.17 0.49 0.48 0.53 0.48 0.65 0.43 0.61 0.72 0.59 0.32 0.22 0.17 0.12 0.05 0.05 0.14 0.20 0.16 0.22 0.31 0.11 0.01 0.02 0.06 0.05 0.01 0.00 0.01 0.04
1.04 0.88 0.78 0.80 0.71 0.71 1.13 0.74 0.45 0.79 0.99 0.46 0.08 0.06 0.08 0.30 0.42 0.59 0.62 0.73 0.47 0.77 0.84 0.76 0.52 0.37 0.22 0.14 0.15 0.02 0.16 0.22 0.29 0.23 0.12 0.02 0.03 0.09 0.05 0.03 0.03 0.01 0.01 0.01
0.89 0.72 0.67 0.75 0.74 0.76 1.26 0.84 0.59 0.92 0.97 0.51 0.14 0.08 0.03 0.10 0.22 0.45 0.66 0.47 0.42 0.58 0.65 1.07 0.83 0.52 0.23 0.23 0.16 0.14 0.10 0.12 0.26 0.20 0.03 0.01 0.01 0.01 0.03 0.06 0.05 0.01 0.01 0.02
0.93 0.73 0.72 0.62 0.65 0.83 1.21 0.75 0.54 0.99 1.52 1.61 0.36 0.04 0.01 0.04 0.19 0.30 0.40 0.56 0.44 0.51 0.72 1.27 1.37 0.73 0.20 0.12 0.15 0.23 0.20 0.12 0.14 0.10 0.02 0.04 0.01 0.01 0.01 0.02 0.02 0.01 0.01 0.01
0.80 0.68 0.73 0.72 0.81 1.06 1.07 0.68 0.59 0.66 1.37 1.56 0.55 0.15 0.04 0.03 0.17 0.34 0.43 0.56 0.83 0.82 1.12 1.38 0.89 0.38 0.34 0.29 0.35 0.39 0.23 0.32 0.36 0.23 0.03 0.20 0.10 0.01 0.02 0.07 0.03 0.03 0.06 0.04
0.67 0.67 0.83 0.92 0.95 1.55 1.70 2.51 1.49 0.75 1.02 2.61 1.89 0.60 0.18 0.11 0.23 0.44 0.58 0.58 0.69 1.19 1.55 1.29 0.68 0.27 0.89 1.43 0.61 0.23 0.12 0.09 0.17 0.19 0.08 0.08 0.05 0.01 0.01 0.07 0.05 0.06 0.09 0.08
0.85 0.89 0.90 0.88 1.12 1.53 1.97 2.42 1.41 1.09 1.57 3.55 3.13 1.64 0.59 0.26 0.35 0.66 0.80 0.81 0.88 1.13 1.70 1.27 0.73 0.46 1.58 2.07 0.86 0.11 0.02 0.01 0.01 0.05 0.21 0.20 0.04 0.09 0.06 0.10 0.07 0.06 0.05 0.04
1.12 1.12 1.15 1.28 1.77 2.06 1.93 1.27 0.97 1.27 2.24 3.35 3.43 1.83 0.80 0.54 0.65 0.93 0.95 0.95 1.06 1.26 1.47 1.07 0.71 0.82 1.42 1.49 0.26 0.05 0.04 0.03 0.01 0.02 0.06 0.16 0.10 0.06 0.08 0.10 0.09 0.08 0.05 0.06
1.82 2.13 2.44 2.91 2.84 2.26 1.80 1.48 1.60 1.66 3.13 5.01 3.08 1.16 0.83 0.74 0.56 0.72 0.87 1.06 1.51 1.43 1.22 1.06 0.91 0.92 1.07 0.62 0.25 0.09 0.07 0.18 0.16 0.04 0.00 0.02 0.05 0.06 0.05 0.07 0.10 0.15 0.13 0.13
3.24 3.45 3.68 3.75 2.99 2.40 2.50 3.39 4.37 5.02 4.63 3.63 1.95 0.77 0.77 0.74 0.66 1.06 1.29 1.41 1.41 1.33 0.93 1.08 1.24 0.75 0.36 0.16 0.13 0.15 0.16 0.17 0.18 0.28 0.26 0.24 0.20 0.11 0.09 0.14 0.17 0.21 0.18 0.17
3.89 3.56 3.02 3.00 2.67 3.33 4.23 4.81 4.46 4.15 3.53 2.30 1.36 0.91 0.66 0.56 0.80 1.12 1.40 1.60 1.36 1.35 0.67 1.03 0.97 0.50 0.17 0.10 0.08 0.05 0.07 0.12 0.16 0.27 0.31 0.33 0.41 0.36 0.28 0.21 0.18 0.16 0.20 0.29
3.45 2.81 2.79 3.40 3.75 4.40 4.27 3.37 2.25 2.06 1.68 1.25 0.90 0.47 0.45 0.71 1.01 1.65 2.02 1.75 1.46 1.11 0.68 1.13 0.48 0.17 0.05 0.08 0.12 0.16 0.17 0.21 0.23 0.29 0.40 0.43 0.48 0.46 0.38 0.33 0.31 0.32 0.30 0.29
3.40 3.59 4.00 3.71 3.33 3.13 2.35 1.42 0.97 0.80 0.61 0.55 0.51 0.48 0.63 0.87 1.24 2.07 1.95 1.88 1.31 0.80 0.96 0.62 0.21 0.08 0.12 0.21 0.16 0.12 0.07 0.13 0.28 0.45 0.57 0.50 0.37 0.28 0.35 0.44 0.45 0.46 0.43 0.46
4.40 4.18 3.80 2.50 1.84 0.92 0.45 0.36 0.33 0.23 0.34 0.44 0.39 0.67 0.82 0.93 1.26 1.53 1.71 1.12 1.03 0.98 0.56 0.22 0.14 0.21 0.29 0.26 0.23 0.23 0.16 0.18 0.36 0.51 0.50 0.43 0.45 0.45 0.44 0.54 0.61 0.58 0.69 0.79
4.00 3.44 2.26 1.28 0.65 0.39 0.35 0.28 0.32 0.46 0.52 0.57 0.69 0.92 0.93 1.18 1.59 1.37 1.35 1.35 0.79 0.28 0.17 0.19 0.31 0.44 0.54 0.55 0.56 0.53 0.40 0.41 0.56 0.73 0.73 0.69 0.45 0.37 0.58 0.84 0.82 0.65 0.67 0.86
3.64 2.91 1.65 0.75 0.45 0.41 0.44 0.44 0.51 0.58 0.63 0.77 1.26 1.43 1.44 1.58 1.55 1.41 0.89 0.71 0.39 0.33 0.49 0.62 0.62 0.72 0.81 0.84 0.86 0.93 0.95 0.94 0.88 1.22 1.38 1.09 0.78 0.77 0.79 0.71 0.83 0.81 0.73 0.74
3.88 1.80 0.83 0.73 0.67 0.69 0.74 0.66 0.67 0.70 1.02 1.09 1.69 1.96 1.22 1.03 1.12 0.52 0.27 0.33 0.33 0.54 0.76 0.87 0.87 0.88 0.78 0.68 0.77 0.92 1.09 1.26 1.08 1.13 1.23 1.35 1.16 0.72 0.40 0.54 0.60 0.51 0.51 0.59

GFSNW_prec_precacc_237.txt.gz
Total_Precipitation_Accumulation
1.97 1.98 1.77 1.64 1.94 1.83 2.28 2.22 2.01 1.92 2.35 2.56 1.80 1.08 0.78 0.47 0.16 0.17 0.14 0.12 0.03 0.01 0.02 0.04 0.13 0.12 0.09 0.03 0.11 0.32 0.41 0.80 0.81 0.65 0.18 0.13 0.25 0.27 0.20 0.75 0.57 0.47 0.52 1.16
1.99 2.34 2.04 1.31 1.77 1.93 2.01 2.00 1.85 2.76 1.57 1.10 0.73 0.47 0.44 0.30 0.10 0.15 0.19 0.12 0.01 0.01 0.03 0.03 0.02 0.01 0.01 0.00 0.02 0.20 0.44 1.03 0.82 0.70 0.49 0.50 0.71 0.33 0.37 0.64 1.01 0.78 0.51 0.83
1.73 2.12 2.28 1.57 1.56 1.70 1.91 1.87 1.90 3.74 2.47 0.61 0.18 0.42 0.46 0.30 0.06 0.08 0.14 0.12 0.03 0.05 0.03 0.01 0.01 0.00 0.00 0.00 0.00 0.17 0.74 0.83 0.87 0.72 0.63 0.89 0.72 0.34 0.54 1.12 1.18 0.38 0.19 0.12
1.58 1.84 2.39 2.63 2.12 1.98 1.79 1.31 0.80 0.85 0.98 0.50 0.11 0.36 0.34 0.37 0.23 0.13 0.17 0.12 0.04 0.07 0.04 0.01 0.01 0.00 0.00 0.00 0.00 0.16 0.67 1.17 1.28 0.55 0.32 0.69 0.60 0.31 0.43 0.98 0.56 0.53 0.17 0.07
1.91 1.80 1.90 2.36 2.09 2.12 1.42 0.80 0.61 0.12 0.07 0.06 0.16 0.23 0.28 0.34 0.34 0.28 0.20 0.15 0.04 0.04 0.05 0.02 0.02 0.01 0.01 0.01 0.01 0.15 0.56 0.98 0.82 0.34 0.20 0.40 0.48 0.24 0.38 0.59 0.44 0.33 0.15 0.16
1.84 1.65 1.81 2.00 1.67 2.04 1.50 0.74 0.54 0.20 0.14 0.13 0.10 0.08 0.12 0.23 0.37 0.24 0.09 0.09 0.11 0.07 0.03 0.01 0.00 0.00 0.00 0.01 0.03 0.09 0.36 0.66 0.89 0.69 0.41 0.55 0.57 0.31 0.38 0.49 0.37 0.25 0.18 0.18
1.48 1.51 1.64 1.74 1.68 1.75 1.42 0.85 0.83 0.41 0.15 0.06 0.03 0.02 0.11 0.23 0.27 0.26 0.14 0.08 0.12 0.06 0.06 0.04 0.02 0.02 0.00 0.02 0.04 0.02 0.11 0.36 0.77 0.82 0.69 0.72 0.54 0.31 0.23 0.25 0.24 0.17 0.17 0.11
1.15 1.22 1.33 1.39 1.36 1.05 0.88 0.76 0.86 0.62 0.23 0.06 0.04 0.03 0.14 0.22 0.21 0.31 0.27 0.09 0.03 0.05 0.07 0.16 0.13 0.11 0.11 0.03 0.03 0.04 0.06 0.19 0.41 0.38 0.34 0.22 0.10 0.17 0.17 0.23 0.16 0.08 0.12 0.05
1.28 1.10 0.98 1.08 0.93 0.87 0.69 0.64 0.86 0.99 0.65 0.12 0.04 0.09 0.19 0.28 0.23 0.32 0.25 0.11 0.09 0.15 0.23 0.39 0.29 0.15 0.11 0.05 0.04 0.04 0.04 0.09 0.41 0.33 0.41 0.17 0.06 0.02 0.01 0.03 0.08 0.01 0.01 0.01
1.47 1.32 1.04 1.10 0.82 0.66 0.67 0.63 0.75 1.05 0.86 0.14 0.03 0.09 0.29 0.47 0.37 0.49 0.40 0.28 0.25 0.24 0.41 0.47 0.28 0.08 0.02 0.03 0.03 0.06 0.17 0.19 0.38 0.37 0.48 0.13 0.03 0.01 0.00 0.06 0.07 0.01 0.03 0.03
1.31 1.33 1.01 0.96 0.71 0.67 0.89 0.50 0.58 1.05 1.00 0.26 0.05 0.05 0.17 0.49 0.48 0.53 0.48 0.65 0.43 0.62 0.72 0.63 0.33 0.22 0.17 0.12 0.05 0.05 0.15 0.20 0.16 0.22 0.31 0.13 0.02 0.03 0.08 0.07 0.03 0.01 0.03 0.04
1.04 0.88 0.78 0.80 0.71 0.72 1.13 0.74 0.45 0.79 0.99 0.46 0.08 0.06 0.08 0.30 0.42 0.59 0.62 0.73 0.47 0.77 0.85 0.76 0.52 0.37 0.22 0.14 0.15 0.03 0.17 0.23 0.30 0.24 0.13 0.03 0.03 0.10 0.06 0.05 0.07 0.01 0.03 0.02
0.89 0.72 0.67 0.75 0.74 0.76 1.26 0.84 0.59 0.92 0.97 0.51 0.14 0.08 0.03 0.10 0.22 0.45 0.66 0.47 0.42 0.59 0.65 1.07 0.83 0.52 0.23 0.23 0.16 0.15 0.10 0.13 0.27 0.20 0.03 0.01 0.01 0.01 0.03 0.06 0.05 0.02 0.02 0.04
0.93 0.73 0.72 0.62 0.65 0.83 1.21 0.75 0.54 0.99 1.52 1.61 0.36 0.04 0.01 0.04 0.19 0.30 0.40 0.56 0.44 0.51 0.72 1.27 1.37 0.73 0.20 0.13 0.16 0.24 0.20 0.12 0.14 0.10 0.02 0.05 0.01 0.01 0.01 0.02 0.02 0.02 0.02 0.01
0.80 0.68 0.73 0.72 0.81 1.06 1.07 0.68 0.59 0.66 1.37 1.56 0.55 0.15 0.04 0.03 0.17 0.34 0.43 0.56 0.83 0.82 1.12 1.38 0.89 0.38 0.36 0.32 0.36 0.40 0.25 0.36 0.39 0.24 0.03 0.23 0.11 0.01 0.02 0.08 0.04 0.04 0.07 0.06
0.67 0.67 0.83 0.92 0.95 1.55 1.70 2.51 1.49 0.75 1.02 2.61 1.89 0.60 0.18 0.11 0.23 0.44 0.58 0.58 0.69 1.19 1.55 1.29 0.68 0.28 0.90 1.44 0.61 0.24 0.13 0.11 0.22 0.23 0.09 0.09 0.06 0.01 0.01 0.07 0.05 0.08 0.12 0.11
0.85 0.89 0.90 0.88 1.12 1.53 1.97 2.42 1.41 1.09 1.57 3.55 3.13 1.64 0.59 0.26 0.35 0.66 0.80 0.81 0.88 1.13 1.70 1.27 0.73 0.46 1.58 2.07 0.86 0.11 0.02 0.01 0.02 0.07 0.24 0.21 0.04 0.09 0.06 0.10 0.08 0.07 0.05 0.04
1.12 1.12 1.15 1.28 1.77 2.06 1.93 1.27 0.97 1.27 2.24 3.35 3.43 1.83 0.80 0.54 0.65 0.93 0.95 0.95 1.06 1.26 1.47 1.07 0.71 0.82 1.42 1.49 0.26 0.05 0.04 0.03 0.01 0.02 0.07 0.17 0.10 0.06 0.08 0.10 0.09 0.08 0.05 0.06
1.82 2.13 2.44 2.91 2.84 2.26 1.80 1.48 1.60 1.66 3.13 5.01 3.08 1.16 0.83 0.74 0.56 0.72 0.87 1.06 1.51 1.43 1.22 1.06 0.91 0.92 1.07 0.62 0.26 0.09 0.08 0.19 0.17 0.04 0.00 0.02 0.05 0.06 0.05 0.07 0.11 0.16 0.14 0.13
3.24 3.45 3.68 3.75 2.99 2.40 2.50 3.39 4.37 5.02 4.63 3.63 1.95 0.78 0.77 0.74 0.66 1.06 1.29 1.41 1.41 1.33 0.94 1.09 1.24 0.76 0.36 0.16 0.13 0.16 0.18 0.18 0.19 0.29 0.27 0.25 0.20 0.12 0.09 0.14 0.18 0.23 0.21 0.18
3.89 3.56 3.02 3.00 2.67 3.33 4.23 4.81 4.46 4.15 3.53 2.30 1.36 0.91 0.66 0.56 0.80 1.12 1.40 1.60 1.36 1.36 0.67 1.04 0.97 0.50 0.17 0.10 0.08 0.05 0.08 0.13 0.18 0.29 0.32 0.35 0.43 0.38 0.30 0.22 0.19 0.18 0.21 0.31
3.45 2.81 2.79 3.40 3.75 4.40 4.27 3.37 2.25 2.06 1.68 1.25 0.90 0.47 0.45 0.71 1.01 1.65 2.02 1.75 1.46 1.11 0.68 1.13 0.48 0.17 0.05 0.08 0.12 0.16 0.18 0.22 0.24 0.30 0.42 0.45 0.50 0.49 0.41 0.36 0.34 0.34 0.33 0.32
3.40 3.59 4.00 3.71 3.33 3.13 2.35 1.42 0.97 0.80 0.61 0.55 0.51 0.48 0.63 0.87 1.24 2.07 1.95 1.88 1.31 0.80 0.96 0.62 0.21 0.08 0.12 0.21 0.16 0.12 0.07 0.13 0.29 0.45 0.58 0.51 0.39 0.30 0.37 0.45 0.47 0.47 0.44 0.47
4.40 4.18 3.80 2.50 1.84 0.92 0.45 0.36 0.33 0.23 0.34 0.45 0.39 0.67 0.82 0.93 1.26 1.53 1.71 1.12 1.03 0.98 0.56 0.22 0.14 0.21 0.29 0.26 0.23 0.23 0.16 0.18 0.36 0.51 0.50 0.43 0.46 0.46 0.45 0.55 0.63 0.61 0.72 0.82
4.00 3.44 2.26 1.28 0.65 0.39 0.35 0.29 0.32 0.46 0.52 0.58 0.69 0.92 0.93 1.18 1.59 1.37 1.35 1.35 0.79 0.28 0.17 0.19 0.31 0.44 0.54 0.55 0.56 0.53 0.40 0.41 0.56 0.73 0.73 0.69 0.45 0.37 0.58 0.84 0.83 0.66 0.68 0.87
3.64 2.91 1.65 0.75 0.45 0.41 0.44 0.44 0.51 0.58 0.63 0.77 1.26 1.43 1.44 1.58 1.55 1.41 0.89 0.71 0.39 0.33 0.49 0.62 0.62 0.72 0.81 0.84 0.86 0.93 0.96 0.95 0.88 1.22 1.38 1.10 0.79 0.77 0.80 0.71 0.83 0.81 0.73 0.74
3.88 1.80 0.83 0.73 0.67 0.69 0.74 0.66 0.68 0.71 1.02 1.09 1.69 1.96 1.22 1.03 1.12 0.52 0.27 0.33 0.33 0.54 0.76 0.87 0.87 0.88 0.78 0.68 0.77 0.92 1.09 1.26 1.08 1.13 1.23 1.35 1.16 0.72 0.40 0.54 0.60 0.51 0.51 0.59

GFSNW_prec_precacc_240.txt.gz
Total_Precipitation_Accumulation
1.97 1.98 1.77 1.64 1.94 1.83 2.28 2.22 2.01 1.92 2.35 2.56 1.80 1.08 0.78 0.47 0.16 0.17 0.14 0.12 0.03 0.01 0.02 0.04 0.13 0.12 0.09 0.03 0.11 0.32 0.41 0.80 0.81 0.65 0.18 0.13 0.26 0.28 0.20 0.75 0.57 0.47 0.53 1.24
1.99 2.34 2.04 1.31 1.77 1.93 2.01 2.00 1.85 2.76 1.57 1.10 0.73 0.47 0.44 0.30 0.10 0.15 0.19 0.12 0.01 0.01 0.03 0.03 0.02 0.01 0.01 0.00 0.02 0.20 0.49 1.08 0.84 0.70 0.50 0.56 0.77 0.35 0.38 0.64 1.02 0.78 0.52 0.90
1.73 2.12 2.28 1.57 1.56 1.70 1.91 1.87 1.90 3.74 2.47 0.61 0.18 0.42 0.46 0.30 0.06 0.08 0.14 0.12 0.03 0.05 0.03 0.01 0.01 0.00 0.00 0.00 0.00 0.18 0.75 0.84 0.89 0.74 0.64 0.89 0.73 0.34 0.55 1.12 1.18 0.38 0.20 0.13
1.58 1.84 2.39 2.63 2.12 1.98 1.79 1.31 0.80 0.85 0.98 0.50 0.11 0.36 0.34 0.37 0.23 0.13 0.17 0.12 0.04 0.07 0.04 0.01 0.01 0.00 0.00 0.00 0.00 0.16 0.67 1.18 1.28 0.55 0.32 0.70 0.62 0.35 0.48 1.01 0.59 0.56 0.20 0.11
1.91 1.80 1.90 2.36 2.09 2.12 1.42 0.80 0.61 0.12 0.07 0.06 0.16 0.23 0.28 0.34 0.34 0.28 0.20 0.15 0.04 0.04 0.05 0.03 0.03 0.01 0.01 0.01 0.02 0.15 0.56 0.98 0.82 0.34 0.21 0.41 0.57 0.28 0.41 0.61 0.45 0.34 0.16 0.17
1.84 1.65 1.81 2.00 1.67 2.04 1.50 0.74 0.54 0.20 0.14 0.13 0.10 0.08 0.12 0.23 0.37 0.24 0.09 0.09 0.11 0.07 0.03 0.01 0.00 0.00 0.00 0.01 0.04 0.10 0.37 0.66 0.89 0.69 0.41 0.58 0.62 0.35 0.39 0.50 0.37 0.25 0.18 0.19
1.48 1.51 1.64 1.74 1.68 1.75 1.42 0.85 0.83 0.41 0.15 0.06 0.03 0.02 0.11 0.23 0.27 0.26 0.14 0.08 0.12 0.06 0.06 0.04 0.02 0.02 0.00 0.03 0.04 0.03 0.11 0.36 0.78 0.83 0.69 0.74 0.57 0.31 0.23 0.25 0.24 0.18 0.17 0.11
1.15 1.22 1.33 1.39 1.36 1.05 0.88 0.76 0.86 0.62 0.23 0.06 0.04 0.03 0.14 0.22 0.21 0.31 0.27 0.09 0.03 0.05 0.07 0.16 0.13 0.11 0.11 0.03 0.03 0.04 0.06 0.19 0.42 0.39 0.35 0.23 0.12 0.17 0.17 0.23 0.17 0.08 0.12 0.05
1.28 1.10 0.98 1.08 0.93 0.87 0.69 0.64 0.86 0.99 0.65 0.12 0.04 0.09 0.19 0.28 0.23 0.32 0.25 0.11 0.09 0.15 0.23 0.39 0.29 0.15 0.11 0.05 0.04 0.04 0.04 0.09 0.41 0.33 0.41 0.17 0.06 0.02 0.01 0.03 0.08 0.01 0.01 0.01
1.47 1.32 1.04 1.10 0.82 0.66 0.67 0.63 0.75 1.05 0.86 0.14 0.03 0.09 0.29 0.47 0.37 0.49 0.40 0.28 0.25 0.24 0.41 0.48 0.29 0.09 0.02 0.03 0.03 0.06 0.17 0.19 0.38 0.37 0.49 0.13 0.03 0.01 0.00 0.06 0.08 0.01 0.03 0.03
1.31 1.33 1.01 0.96 0.71 0.67 0.89 0.50 0.58 1.05 1.00 0.26 0.05 0.05 0.17 0.49 0.48 0.53 0.48 0.65 0.43 0.62 0.72 0.63 0.33 0.23 0.17 0.12 0.05 0.06 0.16 0.20 0.16 0.23 0.32 0.14 0.02 0.03 0.09 0.10 0.04 0.01 0.04 0.05
1.04 0.88 0.78 0.80 0.71 0.72 1.13 0.74 0.45 0.79 0.99 0.46 0.08 0.06 0.08 0.30 0.42 0.59 0.62 0.73 0.47 0.78 0.85 0.76 0.52 0.37 0.22 0.14 0.15 0.03 0.18 0.24 0.31 0.25 0.13 0.03 0.03 0.10 0.07 0.06 0.09 0.02 0.04 0.02
0.89 0.72 0.67 0.75 0.74 0.76 1.26 0.84 0.59 0.92 0.97 0.51 0.14 0.08 0.03 0.10 0.22 0.45 0.66 0.47 0.42 0.59 0.65 1.07 0.83 0.53 0.23 0.23 0.16 0.16 0.11 0.13 0.27 0.20 0.03 0.01 0.01 0.01 0.03 0.06 0.06 0.02 0.02 0.04
0.93 0.73 0.72 0.62 0.65 0.83 1.21 0.75 0.54 0.99 1.52 1.61 0.36 0.04 0.01 0.04 0.19 0.30 0.40 0.56 0.44 0.51 0.72 1.28 1.37 0.74 0.21 0.13 0.17 0.25 0.20 0.12 0.14 0.10 0.02 0.05 0.01 0.01 0.01 0.02 0.02 0.02 0.02 0.01
0.80 0.68 0.73 0.72 0.81 1.06 1.07 0.68 0.59 0.66 1.37 1.56 0.55 0.15 0.04 0.03 0.17 0.34 0.43 0.56 0.83 0.82 1.12 1.38 0.89 0.39 0.38 0.33 0.36 0.41 0.27 0.39 0.42 0.25 0.03 0.25 0.11 0.01 0.02 0.09 0.04 0.05 0.09 0.08
0.67 0.67 0.83 0.92 0.95 1.55 1.70 2.51 1.49 0.75 1.02 2.61 1.89 0.60 0.18 0.11 0.23 0.44 0.58 0.58 0.69 1.19 1.55 1.29 0.69 0.28 0.91 1.45 0.61 0.25 0.13 0.14 0.27 0.26 0.10 0.10 0.06 0.01 0.01 0.08 0.06 0.09 0.14 0.12
0.85 0.89 0.90 0.88 1.12 1.53 1.97 2.42 1.42 1.09 1.57 3.55 3.13 1.64 0.59 0.26 0.35 0.66 0.80 0.81 0.88 1.13 1.70 1.27 0.73 0.46 1.58 2.07 0.86 0.11 0.02 0.02 0.02 0.10 0.27 0.22 0.04 0.09 0.06 0.11 0.08 0.07 0.06 0.04
1.12 1.12 1.15 1.28 1.77 2.06 1.93 1.27 0.97 1.27 2.24 3.35 3.43 1.83 0.80 0.54 0.65 0.93 0.95 0.95 1.06 1.26 1.47 1.07 0.71 0.82 1.42 1.49 0.26 0.05 0.04 0.04 0.01 0.03 0.08 0.19 0.10 0.06 0.09 0.10 0.09 0.08 0.05 0.06
1.82 2.13 2.44 2.91 2.84 2.26 1.80 1.48 1.60 1.66 3.13 5.01 3.08 1.17 0.83 0.74 0.56 0.72 0.87 1.06 1.51 1.43 1.22 1.06 0.91 0.92 1.07 0.63 0.26 0.09 0.08 0.20 0.18 0.04 0.00 0.02 0.05 0.06 0.05 0.07 0.11 0.16 0.14 0.13
3.24 3.45 3.68 3.75 2.99 2.40 2.50 3.39 4.37 5.02 4.63 3.63 1.95 0.78 0.77 0.74 0.66 1.06 1.29 1.41 1.41 1.33 0.94 1.09 1.24 0.76 0.37 0.17 0.14 0.17 0.18 0.19 0.20 0.30 0.29 0.26 0.21 0.12 0.09 0.14 0.18 0.24 0.22 0.19
3.89 3.56 3.02 3.00 2.67 3.33 4.23 4.81 4.46 4.15 3.53 2.30 1.36 0.92 0.67 0.56 0.80 1.12 1.40 1.60 1.36 1.36 0.68 1.04 0.97 0.50 0.17 0.10 0.08 0.06 0.09 0.14 0.18 0.30 0.34 0.37 0.45 0.39 0.31 0.23 0.20 0.19 0.23 0.34
3.45 2.81 2.79 3.40 3.75 4.40 4.27 3.37 2.25 2.06 1.68 1.26 0.91 0.47 0.45 0.71 1.02 1.66 2.02 1.75 1.46 1.11 0.69 1.13 0.48 0.18 0.05 0.08 0.13 0.17 0.18 0.22 0.25 0.31 0.43 0.46 0.51 0.50 0.43 0.38 0.36 0.36 0.35 0.34
3.40 3.59 4.00 3.71 3.33 3.13 2.35 1.42 0.97 0.80 0.61 0.56 0.51 0.48 0.63 0.87 1.24 2.07 1.95 1.88 1.31 0.80 0.96 0.62 0.22 0.08 0.12 0.22 0.17 0.12 0.07 0.14 0.30 0.45 0.59 0.52 0.39 0.30 0.38 0.47 0.47 0.48 0.45 0.49
4.40 4.18 3.80 2.50 1.84 0.92 0.45 0.36 0.33 0.23 0.35 0.45 0.39 0.67 0.82 0.93 1.26 1.53 1.71 1.12 1.03 0.98 0.56 0.22 0.14 0.21 0.29 0.26 0.23 0.24 0.16 0.18 0.37 0.51 0.50 0.44 0.46 0.46 0.45 0.55 0.64 0.62 0.73 0.83
4.00 3.44 2.26 1.28 0.66 0.39 0.35 0.29 0.32 0.46 0.52 0.58 0.69 0.92 0.93 1.18 1.59 1.37 1.35 1.35 0.79 0.28 0.17 0.19 0.31 0.44 0.54 0.55 0.56 0.53 0.41 0.41 0.56 0.73 0.73 0.69 0.46 0.37 0.58 0.84 0.83 0.66 0.68 0.87
3.64 2.91 1.65 0.76 0.45 0.41 0.44 0.44 0.51 0.58 0.63 0.77 1.26 1.43 1.44 1.58 1.55 1.41 0.89 0.71 0.39 0.33 0.49 0.62 0.62 0.72 0.81 0.84 0.87 0.94 0.96 0.95 0.88 1.22 1.38 1.10 0.79 0.77 0.80 0.71 0.83 0.81 0.74 0.75
3.88 1.80 0.83 0.73 0.67 0.69 0.74 0.66 0.68 0.71 1.03 1.09 1.69 1.96 1.22 1.03 1.12 0.53 0.27 0.33 0.33 0.54 0.76 0.87 0.87 0.88 0.78 0.68 0.77 0.92 1.10 1.26 1.08 1.13 1.23 1.35 1.16 0.72 0.40 0.54 0.61 0.51 0.51 0.59